Flag for U.S.A. Weather past 2 weeks in Cincinnati, Ohio, U.S.A.

Now
67 °F

Clear.


Feels Like: 67 °F
Forecast: 69 / 89 °F
Wind: 3 mph from Southwest

Location: Cincinnati Municipal Airport Lunken Field

Current Time: Sep 5, 2015 at 1:58:38 AM

Latest Report: Sep 5, 2015 at 12:53 AM


Visibility: 10 mi

Pressure: 30.07 "Hg

Humidity: 100%

Dew point: 67 °F

Location of CincinnatiLocation

Historic Weather in Cincinnati — Graph

°F

Cincinnati temperature yesterday

Maximum temperature yesterday: 91 °F (at 4:53 PM)
Minimum temperature yesterday: 66 °F (at 2:53 AM)
Average temperature yesterday: 75 °F

Past Weeks' High & Low Weather Summary

 TemperatureHumidityPressure
High91 °F (Sep 4, 4:53 PM)100% (Aug 21, 1:53 AM)30.21 "Hg (Aug 21, 1:53 AM)
Low52 °F (Aug 28, 6:01 AM)39% (Aug 21, 3:53 PM)29.87 "Hg (Aug 23, 7:53 PM)
Average70 °F78%30.07 "Hg
* Reported Aug 20 11:53 PM — Sep 4 11:53 PM, Cincinnati, Weather by CustomWeather, © 2015

Note: Actual official high and low records may vary slightly from our data, if they occured in-between our weather recording intervals... More about our weather records

Advertising

Cincinnati weather history for previous 24 hours

 ConditionsComfort  
Time TempWeatherWind HumidityBarometerVisibility
11:53 PM
Fri, Sep 4
70 °FClear.No windN/A30.08 "Hg10 mi
10:53 PM70 °FClear.6 mphN/A30.08 "Hg10 mi
9:53 PM70 °FLight rain. Clear.8 mphN/A30.11 "Hg10 mi
8:53 PM70 °FThunderstorms. Scattered clouds.6 mphN/A30.12 "Hg10 mi
7:53 PM70 °FRain. Overcast.16 mphN/A30.06 "Hg6 mi
7:02 PM66 °FStrong thunderstorms. Mostly cloudy.20 mphN/A30.13 "Hg1 mi
5:53 PM89 °FThunderstorms. Scattered clouds.6 mph53%29.98 "Hg10 mi
4:53 PM91 °FThundershowers. Passing clouds.7 mph45%29.97 "Hg10 mi
3:53 PM90 °FSunny.8 mph47%29.98 "Hg10 mi
2:53 PM90 °FSunny.No wind47%30.01 "Hg10 mi
1:53 PM90 °FScattered clouds.7 mph48%30.02 "Hg10 mi
12:53 PM88 °FScattered clouds.7 mph52%30.03 "Hg10 mi
11:53 AM87 °FSunny.3 mph55%30.04 "Hg10 mi
10:53 AM83 °FSunny.3 mph68%30.04 "Hg7 mi
9:53 AM77 °FSunny.No wind85%30.03 "Hg5 mi
8:53 AM71 °FFog.No wind96%30.03 "Hg3 mi
7:53 AM67 °FFog.No wind100%30.03 "Hg3 mi
6:53 AM66 °FFog.No wind100%30.01 "Hg3 mi
6:01 AM67 °FFog.No wind100%30.01 "Hg1 mi
5:00 AM67 °FFog.No wind100%30.00 "Hg1 mi
3:57 AM67 °FFog.No wind100%29.99 "Hg1 mi
2:53 AM66 °FFog.No wind100%29.96 "Hg2 mi
1:53 AM68 °FFog.No wind100%29.96 "Hg4 mi
Weather by CustomWeather, © 2015

See weather overviewHow to use our weather pages